Weather History for Findlay, OH

Change the Weather History Date:

Friday, December 6, 2013

  Actual Average Record
Temperature  
Mean Temperature 28 °F -  
Max Temperature 30 °F 39 °F 69 °F (1998)
Min Temperature 26 °F 25 °F 0 °F (1977)
Degree Days  
Heating Degree Days 36    
Moisture  
Dew Point 23 °F    
Average Humidity 79    
Maximum Humidity 100    
Minimum Humidity 69    
Precipitation  
Precipitation 0.03 in - - ()
Sea Level Pressure  
Sea Level Pressure 30.24 in    
Wind  
Wind Speed 6 mph (NW)    
Max Wind Speed 10 mph    
Max Gust Speed -    
Visibility 7 miles    
Events Snow    
Averages and records for this station are not official NWS values.
T = Trace of Precipitation, MM = Missing Value Source: NWS Daily Summary

Daily Weather History Graph

Daily Weather History Graph

Search for Another Location

Airport:

Trip Planner

Search our weather history database for the weather conditions in past years. The results will help you decide how hot, cold, wet, or windy it might be!

Date:

Astronomy

Dec. 06, 2013 Rise Set
Actual Time 7:45 AM EST 5:06 PM EST
Civil Twilight 7:14 AM EST 5:37 PM EST
Nautical Twilight 6:40 AM EST 6:11 PM EST
Astronomical Twilight 6:06 AM EST 6:44 PM EST
Moon 10:49 AM EST (12/6) 9:38 PM EST (12/6)
Length of Visible Light 10h 22m
Length of Day
9h 20m
Waxing Crescent, 19% of the Moon is Illuminated
Dec 6
Waxing Crescent
Dec 9
First Quarter
Dec 17
Full
Dec 25
Last Quarter
Jan 1
New

Hourly Weather History & Observations

Time (EST) Temp. Windchill Dew Point Humidity Pressure Visibility Wind Dir Wind Speed Gust Speed Precip Events Conditions
12:10 AM 28.4 °F 22.2 °F 28.4 °F 100% 30.14 in 1.2 mi NW 5.8 mph - 0.01 in Snow Light Snow
12:27 AM 28.4 °F 21.2 °F 26.6 °F 93% 30.14 in 2.0 mi NW 6.9 mph - 0.01 in Snow Light Snow
12:34 AM 28.4 °F 21.2 °F 26.6 °F 93% 30.14 in 1.2 mi NW 6.9 mph - 0.01 in Snow Light Snow
12:53 AM 28.0 °F 20.8 °F 26.1 °F 92% 30.15 in 1.2 mi WNW 6.9 mph - 0.02 in Snow Light Snow
1:00 AM 28.4 °F 22.2 °F 26.6 °F 93% 30.14 in 1.2 mi WNW 5.8 mph - 0.00 in Snow Light Snow
1:20 AM 28.4 °F 22.2 °F 26.6 °F 93% 30.14 in 2.5 mi West 5.8 mph - 0.00 in Snow Light Snow
1:36 AM 28.4 °F 21.2 °F 26.6 °F 93% 30.13 in 3.0 mi WNW 6.9 mph - 0.00 in Snow Light Snow
1:53 AM 28.0 °F 20.8 °F 26.1 °F 92% 30.15 in 4.0 mi WNW 6.9 mph - 0.01 in Snow Light Snow
2:53 AM 28.9 °F 23.9 °F 25.0 °F 85% 30.15 in 9.0 mi WNW 4.6 mph - 0.00 in   Overcast
3:53 AM 28.9 °F 22.8 °F 25.0 °F 85% 30.17 in 9.0 mi West 5.8 mph - N/A   Overcast
4:53 AM 28.9 °F 22.8 °F 25.0 °F 85% 30.20 in 9.0 mi West 5.8 mph - N/A   Overcast
5:53 AM 28.9 °F 23.9 °F 24.1 °F 82% 30.20 in 10.0 mi West 4.6 mph - N/A   Overcast
6:53 AM 28.9 °F 23.9 °F 24.1 °F 82% 30.20 in 10.0 mi West 4.6 mph - N/A   Overcast
7:53 AM 28.9 °F 22.8 °F 24.1 °F 82% 30.23 in 10.0 mi WNW 5.8 mph - N/A   Overcast
8:53 AM 30.0 °F 24.1 °F 23.0 °F 75% 30.23 in 10.0 mi NW 5.8 mph - N/A   Overcast
9:53 AM 30.0 °F 23.2 °F 23.0 °F 75% 30.25 in 10.0 mi NNW 6.9 mph - N/A   Scattered Clouds
10:53 AM 30.9 °F 22.8 °F 21.9 °F 69% 30.27 in 10.0 mi NNW 9.2 mph - N/A   Overcast
11:53 AM 30.0 °F 21.1 °F 21.9 °F 72% 30.28 in 10.0 mi NNW 10.4 mph - N/A   Overcast
12:53 PM 30.0 °F 24.1 °F 21.9 °F 72% 30.24 in 10.0 mi North 5.8 mph - N/A   Overcast
1:53 PM 30.0 °F 23.2 °F 21.9 °F 72% 30.23 in 10.0 mi NNW 6.9 mph - N/A   Overcast
2:53 PM 30.0 °F 21.7 °F 21.0 °F 69% 30.24 in 10.0 mi NW 9.2 mph - N/A   Overcast
3:53 PM 30.0 °F 21.7 °F 21.0 °F 69% 30.25 in 10.0 mi NNW 9.2 mph - N/A   Overcast
4:53 PM 28.0 °F 21.7 °F 21.9 °F 78% 30.28 in 4.0 mi NW 5.8 mph - 0.00 in Snow Light Snow
5:11 PM 28.4 °F 21.2 °F 21.2 °F 74% 30.26 in 2.5 mi North 6.9 mph - 0.00 in Snow Light Snow
5:34 PM 28.4 °F 23.3 °F 21.2 °F 74% 30.24 in 3.0 mi North 4.6 mph - 0.00 in Snow Light Snow
5:53 PM 28.0 °F 22.8 °F 21.9 °F 78% 30.27 in 7.0 mi North 4.6 mph - 0.00 in Snow Light Snow
6:18 PM 28.4 °F 19.1 °F 21.2 °F 74% 30.27 in 4.0 mi North 10.4 mph - 0.00 in Snow Light Snow
6:29 PM 28.4 °F 22.2 °F 19.4 °F 69% 30.27 in 2.5 mi North 5.8 mph - 0.00 in Snow Light Snow
6:31 PM 28.4 °F 20.4 °F 19.4 °F 69% 30.26 in 3.0 mi North 8.1 mph - 0.00 in Snow Light Snow
6:44 PM 28.4 °F 23.3 °F 21.2 °F 74% 30.27 in 8.0 mi NNE 4.6 mph - 0.00 in Snow Light Snow
6:53 PM 28.0 °F 24.2 °F 21.0 °F 75% 30.30 in 10.0 mi North 3.5 mph - 0.00 in   Overcast
7:17 PM 28.4 °F - 21.2 °F 74% 30.29 in 10.0 mi Calm Calm - N/A   Overcast
7:40 PM 28.4 °F 21.2 °F 19.4 °F 69% 30.31 in 10.0 mi NNW 6.9 mph - N/A   Overcast
7:53 PM 28.0 °F 19.3 °F 19.0 °F 69% 30.31 in 10.0 mi NNW 9.2 mph - N/A   Overcast
8:53 PM 27.0 °F 18.7 °F 19.9 °F 75% 30.32 in 10.0 mi North 8.1 mph - N/A   Overcast
9:53 PM 27.0 °F 23.0 °F 19.9 °F 75% 30.33 in 10.0 mi NNW 3.5 mph - N/A   Overcast
10:53 PM 27.0 °F 18.0 °F 19.0 °F 72% 30.38 in 10.0 mi NW 9.2 mph - 0.00 in   Overcast
11:53 PM 26.1 °F 17.6 °F 19.0 °F 75% 30.39 in 10.0 mi NW 8.1 mph - N/A   Mostly Cloudy